Preview of NWS' New Version of Forecast
This preview is not operational and should not be used for support decisions.

Regional Weather Roundup (RWR)

Issued by National Weather Service (NWS)

                            
000
ASUS45 KBOU 180910
RWRCO 

WEATHER ROUNDUP FOR COLORADO
NATIONAL WEATHER SERVICE DENVER/BOULDER CO
300 AM MDT THU APR 18 2019

NOTE: "FAIR" INDICATES FEW OR NO CLOUDS BELOW 12000 FEET WITH NO
SIGNIFICANT WEATHER AND/OR OBSTRUCTIONS TO VISIBILITY.

COZ001>005-013-030-031-181000-
...NORTHWEST COLORADO...
  
CITY           SKY/WX    TMP DP  RH WIND       PRES   REMARKS
CRAIG          CLOUDY    42  30  62 CALM      30.23S                  
HAYDEN         CLOUDY    39  31  72 W7        30.24S                  
MEEKER         CLOUDY    36  27  69 CALM      30.24S                  
RANGELY        FAIR      33  29  85 NE3       30.22F                  
RABBIT EARS PA HVY SNOW  27  25  93 W10G23    30.22S VSB 1/4 WCI  17  
STEAMBOAT SPGS CLOUDY    37  32  82 SW6       30.22S                  
WALDEN         CLOUDY    34  21  60 W9        30.20S WCI  26          
$$

COZ006>008-011-181000-
...WEST CENTRAL VALLEYS...
  
CITY           SKY/WX    TMP DP  RH WIND       PRES   REMARKS
GRAND JUNCTION FAIR      49  27  42 N7        30.20R                  
MONTROSE       FAIR      36  24  62 SE8       30.23R                  
EAGLE          CLOUDY    37  24  59 N6        30.24R                  
RIFLE          FAIR      41  27  57 CALM      30.22R                  
DELTA          FAIR      43  26  50 E3        30.18S                  
NUCLA          FAIR      45  21  39 CALM      30.23R                  
$$

COZ017>023-064>068-181000-
...SOUTHWEST COLORADO...
  
CITY           SKY/WX    TMP DP  RH WIND       PRES   REMARKS
DURANGO        FAIR      47  18  31 N13       30.08R                  
CORTEZ         FAIR      44  26  49 NW7       30.15R                  
PAGOSA SPRINGS FAIR      34  23  65 CALM      30.11R                  
TELLURIDE      FAIR      32  23  69 SE3       30.27R                  
WOLF CREEK PAS FAIR      23  12  63 N8        30.27S WCI  14          
$$

COZ009-010-012-014-032>034-037-058>063-181000-
...CENTRAL COLORADO...
  
CITY           SKY/WX    TMP DP  RH WIND       PRES   REMARKS
ASPEN          MOCLDY    36  23  59 N6        30.22R                  
BUENA VISTA    FAIR      40  17  39 NW13G23   30.14S                  
COPPER MTN     LGT SNOW  25  21  86 NW15G25   30.25F VSB 3/4 WCI  12  
BERTHOUD PASS  CLOUDY    16   7  67 NW37G44   30.18F WCI  -6          
COTTONWOOD PAS FAIR      34  14  44 W23G36    30.16F WCI  22          
GUNNISON       CLOUDY    33  23  66 CALM      30.21R                  
GRANBY         PTSUNNY   34  26  72 W13       30.20S WCI  25          
KREMMLING      CLOUDY    36  28  75 N5        30.22S                  
LEADVILLE      FLURRIES  27  22  81 N13G23    30.23R WCI  16          
MONARCH PASS   FAIR      21  14  73 W23G32    30.32S WCI   5          
SALIDA         FAIR      40  19  43 SE3       30.21R                  
SUNLIGHT       FAIR      23  19  86 NW8       30.32S WCI  14          
WILKERSON PASS CLOUDY    27  18  69 N3        30.23S                  
$$

COZ069>075-181000-
...SAN LUIS VALLEY/SANGRE DE CRISTO MOUNTAINS...
  
CITY           SKY/WX    TMP DP  RH WIND       PRES   REMARKS
ALAMOSA        FAIR      41  18  39 NW17G24   30.10R                  
DEL NORTE      FAIR      37  19  47 S5        30.15R                  
LA VETA PASS   NOT AVBL                                               
SAGUACHE       FAIR      37  19  48 CALM      30.16R                  
$$

COZ035-036-038>040-181000-
...NORTHERN COLORADO FRONT RANGE...
  
CITY           SKY/WX    TMP DP  RH WIND       PRES   REMARKS
DENVER INTL AP LGT RAIN  41  36  82 CALM      30.11S                  
AURORA         MOCLDY    40  36  88 CALM      30.12R                  
FRONT RANGE AP LGT RAIN  42  38  86 CALM      30.13R                  
ERIE MUNI ARPT FAIR      41  35  79 S6        30.16S                  
BOULDER MUN AP FAIR      41  36  81 S5        30.10S                  
CENTENNIAL     FAIR      39  36  89 CALM      30.12S                  
BROOMFIELD     FAIR      39  36  87 SE6       30.12S                  
FORT COLLINS   MOCLDY    40  34  79 SW7       30.10F                  
LONGMONT       FAIR      42  35  75 CALM      30.13R                  
$$

COZ041-046-047-076>085-087-088-181000-
...PIKES PEAK/PALMER DIVIDE AND SOUTHERN FOOTHILLS...
  
CITY           SKY/WX    TMP DP  RH WIND       PRES   REMARKS
COLO. SPRINGS  MOCLDY    41  33  73 N12       30.13R                  
A. F. ACADEMY  CLOUDY    40  34  79 N8        30.11R                  
SCHRIEVER AFB  NOT AVBL                                               
CHEYENNE MTN   CLOUDY    38  33  83 NW12G20   30.07R                  
ELLICOTT         N/A    N/A N/A N/A N9        30.10R                  
FALCON         MOCLDY    36  34  93 N15G24    30.13S                  
FORT CARSON    FAIR      41  34  76 N14G21    30.12R                  
LIMON          CLOUDY    39  38  96 NW5       30.09F                  
MONUMENT HILL  MOCLDY    32  32 100 N6        30.15S WCI  26          
CANON CITY     NOT AVBL                                               
WALSENBURG     NOT AVBL                                               
TRINIDAD       LGT RAIN  44  39  82 NE21G31   30.09R                  
$$

COZ042>045-048>051-090-091-181000-
...NORTHEAST COLORADO...
  
CITY           SKY/WX    TMP DP  RH WIND       PRES   REMARKS
GREELEY ARPT   MOCLDY    42  34  73 NW10      30.10S                  
AKRON          FAIR      38  37  97 W8        30.07R                  
BURLINGTON     CLOUDY    43  38  82 NW8       30.06F                  
WRAY           FAIR      39  37  93 W7        30.05R                  
YUMA           NOT AVBL                                               
STERLING       MOCLDY    39  37  93 W9        30.06S                  
HOLYOKE        FAIR      43  37  81 W14       30.03R                  
FORT MORGAN      N/A     38  33  82 NW6       30.09S                  
$$

COZ086-089-092>099-181000-
...SOUTHEAST COLORADO...
  
CITY           SKY/WX    TMP DP  RH WIND       PRES   REMARKS
PUEBLO         CLOUDY    47  39  74 NE7       30.11R                  
LA JUNTA       CLOUDY    51  33  50 N21G26    30.08R                  
LAMAR          FAIR      50  32  50 N17G30    30.03R                  
SPRINGFIELD      N/A     45  33  63 N14       30.00R                  
$$